Location: Alpha Ridge Park
(39.3209°N, 76.9128°W)
Time: 17:00:55
(UTC-04:00)

Vanguard 3 - Visible Passes

Search period start: 24 May 2019 00:00
Search period end: 03 June 2019 00:00
Orbit: 508 x 3263 km, 33.3° (Epoch: 24 May)

Date Brightness Start Highest point End Pass type
(mag) Time Alt. Az. Time Alt. Az. Time Alt. Az.
24 May 9.0 00:58:08 10° W 01:07:41 62° S 01:24:08 10° ESE visible
24 May 9.8 03:10:17 10° W 03:22:17 43° SSW 03:39:34 10° SE visible
24 May 8.2 21:34:47 10° SW 21:40:19 43° SSE 21:49:45 10° E visible
24 May 8.6 23:44:48 10° WSW 23:52:37 63° S 00:06:46 10° ESE visible
25 May 9.3 01:56:05 10° W 02:06:32 52° SSW 02:23:23 10° SE visible
25 May 10.2 04:09:36 10° W 04:21:13 29° SSW 04:36:16 10° SSE visible
25 May 8.2 22:31:48 10° WSW 22:38:09 57° S 22:49:34 10° E visible
26 May 8.9 00:42:27 10° W 00:51:12 58° S 01:06:30 10° ESE visible
26 May 9.7 02:54:32 10° W 03:05:27 38° SSW 03:21:27 10° SSE visible
26 May 10.7 05:11:26 10° WSW 05:20:01 16° SW 05:29:49 10° S visible
26 May 8.0 21:19:09 10° SW 21:24:15 44° SSE 21:32:49 10° E visible
26 May 8.4 23:29:12 10° W 23:36:22 60° S 23:49:21 10° ESE visible
27 May 9.2 01:40:24 10° W 01:49:57 46° SSW 02:05:29 10° SE visible
27 May 10.2 03:54:08 10° W 04:04:20 25° SSW 04:17:37 10° SSE visible
27 May 8.0 22:16:15 10° WSW 22:22:04 56° S 22:32:25 10° E visible
28 May 8.8 00:26:50 10° W 00:34:50 53° SSW 00:48:51 10° ESE visible
28 May 10.0 02:38:58 10° W 02:51:29 31° S 03:03:10 10° SSE visible
28 May 10.6 04:57:47 10° WSW 05:03:10 12° SW 05:09:08 10° SSW visible
28 May 7.8 21:03:34 10° SW 21:08:16 44° SSE 21:16:00 10° E visible
28 May 8.3 23:13:40 10° W 23:20:13 56° S 23:25:05 33° ESE visible
29 May 9.4 01:24:50 10° W 01:45:12 15° SE 01:47:31 10° SE visible
29 May 10.4 03:50:02 19° SSW 03:50:02 19° SSW 03:58:33 10° S visible
29 May 7.9 22:00:44 10° WSW 22:06:04 54° S 22:14:02 14° ESE visible
30 May 8.7 00:11:19 10° W 00:18:30 47° SSW 00:18:30 47° SSW visible
30 May 10.4 02:42:52 13° SSE 02:42:52 13° SSE 02:44:40 10° SSE visible
30 May 7.6 20:48:00 10° WSW 20:52:22 44° SSE 20:59:18 10° E visible
30 May 8.2 22:58:10 10° W 23:04:09 51° S 23:07:45 35° SE visible
31 May 9.6 01:09:23 10° W 01:12:14 22° WSW 01:12:14 22° WSW visible
31 May 7.7 21:45:15 10° WSW 21:50:09 51° S 21:57:09 14° ESE visible
31 May 8.7 23:55:51 10° W 00:01:39 40° SSW 00:01:39 40° SSW visible
01 Jun10.602:31:52SSE02:31:52SSE02:06:10Wvisible
01 Jun 8.1 22:42:42 10° W 22:48:10 45° S 22:51:11 33° SE visible
02 Jun 9.7 00:54:06 10° WSW 00:55:42 16° WSW 00:55:42 16° WSW visible
02 Jun 7.6 21:29:46 10° WSW 21:34:18 46° S 21:40:49 13° ESE visible
02 Jun 8.8 23:40:29 10° WSW 23:45:19 32° SSW 23:45:19 32° SSW visible
